DW8633 Weather Reports


Display with metric or nautical units.
time (UTC)temp
F
wind
direction
speed
MPH
gust
MPH
rain 1hr
in
rain 24hr
in
rain mn
in
humidity
%
barometer
mb
20260831003028 67 360 12.0 20.0 0.00 0.00 0.00 57 928.5
20260831002528 67 360 9.0 13.0 0.00 0.00 0.00 61 928.7
20260831002028 67 360 8.0 13.0 0.00 0.00 0.00 61 928.6
20260831001028 68 360 9.0 13.0 0.00 0.00 0.00 66 928.4
20260831000527 67 360 8.0 11.0 0.00 0.00 0.00 66 928.5
20260831000027 66 360 7.0 10.0 0.00 0.00 0.00 71 928.6
20260830235528 65 360 6.0 10.0 0.00 0.00 0.00 73 928.7
20260830235029 64 360 7.0 11.0 0.00 0.00 0.00 73 928.7
20260830234530 64 360 8.0 11.0 0.00 0.00 0.00 73 928.8
20260830234029 64 360 6.0 10.0 0.00 0.00 0.00 73 928.5
20260830233527 64 360 5.0 10.0 0.00 0.00 0.00 72 928.8
20260830233027 64 360 6.0 10.0 0.00 0.00 0.00 72 928.8
20260830232527 64 360 7.0 12.0 0.00 0.00 0.00 72 928.6
20260830232027 64 360 8.0 14.0 0.00 0.00 0.00 72 928.8
20260830231026 64 360 3.0 9.0 0.00 0.00 0.00 71 927.9
20260830230526 64 360 5.0 9.0 0.00 0.00 0.00 71 928.7
20260830230027 64 360 3.0 13.0 0.00 0.00 0.00 70 928.0
20260830225526 64 360 10.0 14.0 0.00 0.00 0.00 69 929.5
20260830225026 65 360 9.0 14.0 0.00 0.00 0.00 68 929.2
20260830224531 65 360 7.0 15.0 0.00 0.00 0.00 68 928.8
20260830224025 64 360 9.0 15.0 0.00 0.00 0.00 70 929.1
20260830223525 64 360 8.0 22.0 0.00 0.00 0.00 69 928.4
20260830223025 65 360 13.0 25.0 0.00 0.00 0.00 67 929.2
20260830222523 66 248 14.0 29.0 0.00 0.00 0.00 67 929.4
20260830222028 66 360 19.0 29.0 0.00 0.00 0.00 66 929.6
20260830221024 67 360 22.0 32.0 0.00 0.00 0.00 66 929.0
20260830220523 68 360 22.0 32.0 0.00 0.00 0.00 65 929.0
20260830220026 67 360 21.0 29.0 0.00 0.00 0.00 66 929.1
20260830215525 67 360 18.0 29.0 0.00 0.00 0.00 65 929.1
20260830215023 68 360 20.0 28.0 0.00 0.00 0.00 63 929.1
20260830214522 69 360 21.0 28.0 0.00 0.00 0.00 63 928.9
20260830214021 68 360 18.0 31.0 0.00 0.00 0.00 65 929.0
20260830213524 68 360 20.0 32.0 0.00 0.00 0.00 65 929.1
20260830213024 68 360 23.0 35.0 0.00 0.00 0.00 65 929.1
20260830212521 69 360 21.0 35.0 0.00 0.00 0.00 62 929.2
20260830212021 70 360 23.0 32.0 0.00 0.00 0.00 58 929.2
20260830211021 66 360 23.0 31.0 0.00 0.00 0.00 63 929.1
20260830210521 66 360 21.0 33.0 0.00 0.00 0.00 65 929.2
20260830210020 67 360 22.0 35.0 0.00 0.00 0.00 64 929.1
20260830205520 67 360 25.0 39.0 0.00 0.00 0.00 61 929.1
20260830205019 68 360 24.0 36.0 0.00 0.00 0.00 58 929.2
20260830204519 68 360 21.0 28.0 0.00 0.00 0.00 65 929.0
20260830204118 68 360 15.0 28.0 0.00 0.00 0.00 68 929.0
20260830203516 68 360 14.0 22.0 0.00 0.00 0.00 72 928.8
20260830203017 68 360 12.0 21.0 0.00 0.00 0.00 73 928.4
20260830202517 68 360 15.0 23.0 0.00 0.00 0.00 71 928.2
20260830202015 69 360 15.0 25.0 0.00 0.00 0.00 69 928.1
20260830201013 71 360 16.0 25.0 0.00 0.00 0.00 67 927.9
20260830200513 70 360 18.0 28.0 0.00 0.00 0.00 70 927.7
20260830200014 70 360 19.0 28.0 0.00 0.00 0.00 70 927.6
20260830195513 70 360 19.0 27.0 0.00 0.00 0.00 72 927.6
20260830195013 68 360 18.0 25.0 0.00 0.00 0.00 77 927.4
20260830194513 66 360 16.0 23.0 0.00 0.00 0.00 79 927.5
20260830194012 66 304 15.0 23.0 0.00 0.00 0.00 80 927.6
20260830193513 67 296 17.0 25.0 0.00 0.00 0.00 77 927.6
20260830193013 67 360 16.0 28.0 0.00 0.00 0.00 76 927.6
20260830192510 68 360 18.0 28.0 0.00 0.00 0.00 73 927.8
20260830192011 70 360 20.0 25.0 0.00 0.00 0.00 70 927.9
20260830191009 72 360 16.0 25.0 0.00 0.00 0.00 68 927.7
20260830190511 73 319 17.0 25.0 0.00 0.00 0.00 66 927.4
20260830190015 74 296 15.0 25.0 0.00 0.00 0.00 66 927.2
20260830185507 75 299 18.0 25.0 0.00 0.00 0.00 65 927.2
20260830185007 75 313 20.0 25.0 0.00 0.00 0.00 66 927.4
20260830184511 75 301 19.0 25.0 0.00 0.00 0.00 66 927.2
20260830184005 75 293 18.0 25.0 0.00 0.00 0.00 66 927.2
20260830183506 76 274 16.0 24.0 0.00 0.00 0.00 66 927.1
20260830183008 77 288 15.0 24.0 0.00 0.00 0.00 65 926.9
20260830182505 77 286 18.0 23.0 0.00 0.00 0.00 65 926.8
20260830182006 77 299 15.0 23.0 0.00 0.00 0.00 66 926.8
20260830181004 76 291 15.0 23.0 0.00 0.00 0.00 67 926.7
20260830180507 76 308 16.0 23.0 0.00 0.00 0.00 67 926.8
20260830180005 76 294 15.0 22.0 0.00 0.00 0.00 66 926.7
20260830175504 76 265 14.0 21.0 0.00 0.00 0.00 66 926.7
20260830175004 76 313 12.0 20.0 0.00 0.00 0.00 66 926.7
20260830174512 77 306 14.0 21.0 0.00 0.00 0.00 64 926.6
20260830174003 77 254 14.0 21.0 0.00 0.00 0.00 64 926.5
20260830173503 77 286 10.0 19.0 0.00 0.00 0.00 65 926.5
20260830173003 77 298 12.0 19.0 0.00 0.00 0.00 64 926.5
20260830172503 77 319 12.0 16.0 0.00 0.00 0.00 65 926.5
20260830172006 76 294 10.0 16.0 0.00 0.00 0.00 66 926.6
20260830171003 76 317 12.0 19.0 0.00 0.00 0.00 66 926.6
20260830170505 76 300 10.0 21.0 0.00 0.00 0.00 65 926.6
20260830170002 76 294 11.0 18.0 0.00 0.00 0.00 65 926.6
20260830165505 76 269 11.0 16.0 0.00 0.00 0.00 65 926.6
20260830165003 76 299 11.0 18.0 0.00 0.00 0.00 64 926.7
20260830164502 75 274 12.0 18.0 0.00 0.00 0.00 61 926.7
20260830164005 75 299 10.0 19.0 0.00 0.00 0.00 61 926.6
20260830163502 75 291 12.0 24.0 0.00 0.00 0.00 62 926.7
20260830163002 75 287 14.0 24.0 0.00 0.00 0.00 63 926.8
20260830162501 76 300 14.0 23.0 0.00 0.00 0.00 63 926.8
20260830162001 76 283 15.0 22.0 0.00 0.00 0.00 63 926.7
20260830161001 78 265 8.0 15.0 0.00 0.00 0.00 57 926.6
20260830160501 78 262 10.0 14.0 0.00 0.00 0.00 56 926.5
20260830155600 78 240 8.0 14.0 0.00 0.00 0.00 55 926.4
20260830155059 77 241 8.0 12.0 0.00 0.00 0.00 57 926.3
20260830154559 77 257 8.0 13.0 0.00 0.00 0.00 60 926.3
20260830154101 77 257 8.0 12.0 0.00 0.00 0.00 61 926.3
20260830153559 76 243 7.0 11.0 0.00 0.00 0.00 62 926.3
20260830153056 76 209 7.0 11.0 0.00 0.00 0.00 63 926.3
20260830152555 76 252 6.0 10.0 0.00 0.00 0.00 64 926.3
20260830152053 76 245 6.0 10.0 0.00 0.00 0.00 64 926.3
20260830151655 75 264 5.0 8.0 0.00 0.00 0.00 64 926.3
20260830151053 75 199 4.0 8.0 0.00 0.00 0.00 64 926.2
20260830150552 75 236 3.0 8.0 0.00 0.00 0.00 65 926.2
20260830150051 74 200 3.0 8.0 0.00 0.00 0.00 67 926.2
20260830145549 74 178 5.0 9.0 0.00 0.00 0.00 69 926.4
20260830145048 73 229 5.0 12.0 0.00 0.00 0.00 72 926.3
20260830144547 72 141 5.0 10.0 0.00 0.00 0.00 74 926.4
20260830144051 71 165 7.0 11.0 0.00 0.00 0.00 77 926.3
20260830143547 70 360 6.0 11.0 0.00 0.00 0.00 80 926.4
20260830143050 69 360 5.0 9.0 0.00 0.00 0.00 83 926.4
20260830142552 67 163 3.0 9.0 0.00 0.00 0.00 85 926.3
20260830142047 66 360 2.0 6.0 0.00 0.00 0.00 85 926.3
20260830141646 65 129 5.0 7.0 0.00 0.00 0.00 84 926.4
20260830141046 65 130 5.0 7.0 0.00 0.00 0.00 84 926.4
20260830140545 65 130 5.0 7.0 0.00 0.00 0.00 85 926.4
20260830140056 65 130 5.0 7.0 0.00 0.00 0.00 85 926.3
20260830135546 64 124 5.0 8.0 0.00 0.00 0.00 85 926.2
20260830135046 64 360 5.0 8.0 0.00 0.00 0.00 86 926.2
20260830134551 63 360 5.0 8.0 0.00 0.00 0.00 86 926.2
20260830134046 62 360 4.0 6.0 0.00 0.00 0.00 87 926.3
20260830133544 62 360 3.0 7.0 0.00 0.00 0.00 88 926.3
20260830133045 61 360 4.0 7.0 0.00 0.00 0.00 88 926.4
20260830132547 60 360 4.0 6.0 0.00 0.00 0.00 88 926.5
20260830132044 60 360 4.0 6.0 0.00 0.00 0.00 88 926.4
20260830131645 60 360 4.0 6.0 0.00 0.00 0.00 88 926.4
20260830131045 60 360 4.0 6.0 0.00 0.00 0.00 88 926.4
20260830130546 60 360 4.0 5.0 0.00 0.00 0.00 87 926.5
20260830130044 60 360 4.0 5.0 0.00 0.00 0.00 86 926.5
20260830125542 60 360 3.0 5.0 0.00 0.00 0.00 85 926.5
20260830125042 60 360 1.0 5.0 0.00 0.00 0.00 85 926.6
20260830124540 61 360 2.0 8.0 0.00 0.00 0.00 85 926.6
20260830124041 61 360 4.0 8.0 0.00 0.00 0.00 86 926.7
20260830123540 61 360 6.0 8.0 0.00 0.00 0.00 86 926.8
20260830123043 61 360 5.0 8.0 0.00 0.00 0.00 85 926.8
20260830122539 61 360 5.0 8.0 0.00 0.00 0.00 84 926.9
20260830122041 61 360 5.0 8.0 0.00 0.00 0.00 85 926.8
20260830121639 61 360 6.0 9.0 0.00 0.00 0.00 85 926.9
20260830121038 61 360 6.0 9.0 0.00 0.00 0.00 85 926.8
20260830120540 61 360 6.0 9.0 0.00 0.00 0.00 84 926.9
20260830120039 61 360 6.0 9.0 0.00 0.00 0.00 84 926.9
20260830115538 61 360 6.0 9.0 0.00 0.00 0.00 84 926.9
20260830115039 61 360 6.0 9.0 0.00 0.00 0.00 83 926.9
20260830114547 61 360 6.0 9.0 0.00 0.00 0.00 83 926.8
20260830114037 62 360 7.0 9.0 0.00 0.00 0.00 82 926.8
20260830113535 62 360 6.0 8.0 0.00 0.00 0.00 82 926.9
20260830113039 62 360 5.0 7.0 0.00 0.00 0.00 82 926.8
20260830112534 62 360 5.0 7.0 0.00 0.00 0.00 81 926.8
20260830112035 62 360 4.0 7.0 0.00 0.00 0.00 81 926.8
20260830111632 63 360 4.0 6.0 0.00 0.00 0.00 78 926.7
20260830111034 64 360 4.0 6.0 0.00 0.00 0.00 78 926.7
20260830110532 64 360 4.0 9.0 0.00 0.00 0.00 78 926.7
20260830110037 64 360 5.0 10.0 0.00 0.00 0.00 78 926.6
20260830105531 64 360 6.0 10.0 0.00 0.00 0.00 78 926.6
20260830105033 65 360 7.0 14.0 0.00 0.00 0.00 76 926.5
20260830104533 65 360 8.0 14.0 0.00 0.00 0.00 76 926.4
20260830104031 64 360 9.0 13.0 0.00 0.00 0.00 77 926.4
20260830103531 64 360 5.0 9.0 0.00 0.00 0.00 78 926.5
20260830103030 63 360 6.0 9.0 0.00 0.00 0.00 78 926.5
20260830102530 64 360 5.0 7.0 0.00 0.00 0.00 78 926.3
20260830102028 64 360 2.0 7.0 0.00 0.00 0.00 77 926.4
20260830101631 64 360 2.0 8.0 0.00 0.00 0.00 77 926.4
20260830101028 64 360 2.0 8.0 0.00 0.00 0.00 77 926.6
20260830100527 65 60 4.0 11.0 0.00 0.00 0.00 77 926.5
20260830100027 65 57 6.0 15.0 0.00 0.00 0.00 77 926.3
20260830095528 65 76 7.0 18.0 0.00 0.00 0.00 77 926.2
20260830095026 65 65 9.0 18.0 0.00 0.00 0.00 78 926.1
20260830094524 65 89 7.0 15.0 0.00 0.00 0.00 78 926.2
20260830094028 65 122 9.0 15.0 0.00 0.00 0.00 78 926.2
20260830093523 66 360 8.0 18.0 0.00 0.00 0.00 79 926.2
20260830093021 66 360 10.0 19.0 0.00 0.00 0.00 80 926.2
20260830092520 67 360 9.0 20.0 0.00 0.00 0.00 80 926.3
20260830092019 67 360 10.0 19.0 0.00 0.00 0.00 83 926.2
20260830091618 68 360 9.0 18.0 0.00 0.00 0.00 86 926.2
20260830091019 68 360 10.0 18.0 0.00 0.00 0.00 86 926.2
20260830090517 69 360 9.0 18.0 0.00 0.00 0.00 87 926.2
20260830090018 69 88 9.0 15.0 0.00 0.00 0.00 88 926.3
20260830085515 69 98 8.0 20.0 0.00 0.00 0.00 89 926.2
20260830085015 69 95 9.0 20.0 0.00 0.00 0.00 89 926.2
20260830084514 69 76 10.0 18.0 0.00 0.00 0.00 89 926.2
20260830084015 69 96 10.0 20.0 0.00 0.00 0.00 88 926.1
20260830083514 69 95 12.0 20.0 0.00 0.00 0.00 88 926.1
20260830083014 69 97 11.0 18.0 0.00 0.00 0.00 88 926.1
20260830082512 69 95 11.0 21.0 0.00 0.00 0.00 87 926.1
20260830082013 69 91 13.0 21.0 0.00 0.00 0.00 87 926.0
20260830081612 70 92 12.0 18.0 0.00 0.00 0.00 86 926.0
20260830081011 70 94 11.0 18.0 0.00 0.00 0.00 86 926.0
20260830080510 70 74 11.0 18.0 0.00 0.00 0.00 85 926.1
20260830080009 70 86 12.0 18.0 0.00 0.00 0.00 85 926.2
20260830075508 70 73 9.0 15.0 0.00 0.00 0.00 83 926.3
20260830075009 70 360 9.0 15.0 0.00 0.00 0.00 83 926.4
20260830074511 70 360 10.0 15.0 0.00 0.00 0.00 81 926.4
20260830074008 71 360 9.0 14.0 0.00 0.00 0.00 80 926.6
20260830073503 71 360 8.0 15.0 0.00 0.00 0.00 79 926.6
20260830073005 71 360 8.0 15.0 0.00 0.00 0.00 78 926.6
20260830072502 71 360 10.0 14.0 0.00 0.00 0.00 77 926.7
20260830072003 72 360 9.0 15.0 0.00 0.00 0.00 76 926.5
20260830071614 72 360 10.0 18.0 0.00 0.00 0.00 74 926.5
20260830071003 72 87 11.0 18.0 0.00 0.00 0.00 74 926.6
20260830070502 72 360 10.0 16.0 0.00 0.00 0.00 73 926.7
20260830070101 72 360 8.0 15.0 0.00 0.00 0.00 72 926.7
20260830065603 73 360 11.0 16.0 0.00 0.00 0.00 71 926.8
20260830065058 73 95 11.0 16.0 0.00 0.00 0.00 70 926.8
20260830064558 73 84 10.0 15.0 0.00 0.00 0.00 69 926.9
20260830064156 73 360 9.0 16.0 0.00 0.00 0.00 67 926.9
20260830063555 73 360 10.0 16.0 0.00 0.00 0.00 65 926.9
20260830063055 73 360 9.0 14.0 0.00 0.00 0.00 62 927.0
20260830062554 73 360 8.0 14.0 0.00 0.00 0.00 59 927.1
20260830062051 73 360 8.0 13.0 0.00 0.00 0.00 57 927.1
20260830061552 73 360 7.0 11.0 0.00 0.00 0.00 54 927.2
20260830060548 73 360 8.0 11.0 0.00 0.00 0.00 54 927.1
20260830060048 73 360 7.0 11.0 0.00 0.00 0.00 54 927.1
20260830055548 72 360 6.0 9.0 0.00 0.00 0.00 54 927.0
20260830055047 71 360 4.0 8.0 0.00 0.00 0.00 54 927.0
20260830054551 71 360 2.0 5.0 0.00 0.00 0.00 54 927.1
20260830054048 71 360 1.0 6.0 0.00 0.00 0.00 54 927.1
20260830053547 71 360 1.0 8.0 0.00 0.00 0.00 55 927.2
20260830053054 70 360 4.0 8.0 0.00 0.00 0.00 58 927.3
20260830052547 69 360 0.0 5.0 0.00 0.00 0.00 62 927.2
20260830052047 69 360 0.0 5.0 0.00 0.00 0.00 62 927.2
20260830051550 70 360 2.0 4.0 0.00 0.00 0.00 62 927.3
20260830050548 70 360 1.0 3.0 0.00 0.00 0.00 59 927.3
20260830050054 70 360 0.0 4.0 0.00 0.00 0.00 59 927.3
20260830045546 70 360 1.0 4.0 0.00 0.00 0.00 59 927.3
20260830045047 70 360 0.0 0.0 0.00 0.00 0.00 59 927.4
20260830044546 70 360 0.0 0.0 0.00 0.00 0.00 59 927.4
20260830044046 71 360 0.0 0.0 0.00 0.00 0.00 58 927.4
20260830043548 71 360 0.0 0.0 0.00 0.00 0.00 58 927.4
20260830043046 71 360 0.0 2.0 0.00 0.00 0.00 58 927.4
20260830042546 71 360 0.0 2.0 0.00 0.00 0.00 57 927.5
20260830042047 71 360 0.0 1.0 0.00 0.00 0.00 57 927.5
20260830041625 71 360 1.0 4.0 0.00 0.00 0.00 58 927.5
20260830040544 70 360 1.0 4.0 0.00 0.00 0.00 58 927.4
20260830040051 70 360 0.0 0.0 0.00 0.00 0.00 58 927.4
20260830035545 71 360 0.0 0.0 0.00 0.00 0.00 58 927.5
20260830035045 71 360 0.0 2.0 0.00 0.00 0.00 58 927.5
20260830034547 71 360 0.0 4.0 0.00 0.00 0.00 58 927.4
20260830034044 71 360 1.0 4.0 0.00 0.00 0.00 57 927.4
20260830033543 72 360 1.0 3.0 0.00 0.00 0.00 57 927.3
20260830033045 72 360 1.0 4.0 0.00 0.00 0.00 57 927.4
20260830032543 73 360 0.0 0.0 0.00 0.00 0.00 55 927.3
20260830032043 73 268 0.0 0.0 0.00 0.00 0.00 55 927.3
20260830031543 75 360 0.0 0.0 0.00 0.00 0.00 52 927.3
20260830030544 75 360 0.0 0.0 0.00 0.00 0.00 52 927.2
20260830030048 76 360 0.0 0.0 0.00 0.00 0.00 51 927.1
20260830025547 76 360 0.0 0.0 0.00 0.00 0.00 51 927.1
20260830025043 76 360 0.0 0.0 0.00 0.00 0.00 51 927.2
20260830024549 76 360 0.0 0.0 0.00 0.00 0.00 50 927.1
20260830024046 77 360 0.0 1.0 0.00 0.00 0.00 49 927.1
20260830023545 78 269 0.0 2.0 0.00 0.00 0.00 48 927.1
20260830023058 78 269 0.0 4.0 0.00 0.00 0.00 47 927.1
20260830022545 78 269 0.0 5.0 0.00 0.00 0.00 47 927.1
20260830022044 78 269 1.0 5.0 0.00 0.00 0.00 48 927.0
20260830021543 78 269 4.0 5.0 0.00 0.00 0.00 47 927.0
20260830020542 79 269 3.0 5.0 0.00 0.00 0.00 46 927.0
20260830020049 78 269 1.0 4.0 0.00 0.00 0.00 47 926.9
20260830015546 78 269 0.0 5.0 0.00 0.00 0.00 47 926.9
20260830015043 78 269 2.0 7.0 0.00 0.00 0.00 47 926.8
20260830014542 78 269 4.0 7.0 0.00 0.00 0.00 46 926.7
20260830014043 78 217 3.0 5.0 0.00 0.00 0.00 46 926.7
20260830013542 78 136 0.0 4.0 0.00 0.00 0.00 47 926.7
20260830013044 78 135 0.0 5.0 0.00 0.00 0.00 47 926.6
20260830012542 79 135 3.0 5.0 0.00 0.00 0.00 46 926.7
20260830012042 80 135 0.0 0.0 0.00 0.00 0.00 44 926.7
20260830011553 80 135 0.0 7.0 0.00 0.00 0.00 43 926.7
20260830010543 81 135 3.0 8.0 0.00 0.00 0.00 41 926.8
20260830010141 81 134 5.0 8.0 0.00 0.00 0.00 41 926.7
20260830005541 81 130 5.0 10.0 0.00 0.00 0.00 40 926.7
20260830005041 82 127 6.0 12.0 0.00 0.00 0.00 39 926.5
20260830004540 82 98 6.0 12.0 0.00 0.00 0.00 39 926.6
20260830004040 82 80 7.0 11.0 0.00 0.00 0.00 38 926.4
20260830003547 83 92 7.0 13.0 0.00 0.00 0.00 37 926.5